Location: Muenchen
(48.1800°N, 11.5800°E)
Time: 07:54:30
(UTC+02:00)

Iridium 36 - Visible Passes

Search period start: 22 August 2014 00:00
Search period end: 01 September 2014 00:00
Orbit: 773 x 776 km, 86.4° (Epoch: 21 August)

Date Brightness Start Highest point End Pass type
(mag) Time Alt. Az. Time Alt. Az. Time Alt. Az.
22 Aug 6.2 04:56:44 10° SSE 05:01:49 58° E 05:06:55 10° N visible
23 Aug 7.2 04:22:57 10° SE 04:27:33 33° E 04:32:10 10° NNE visible
24 Aug 8.0 03:49:47 10° ESE 03:53:25 20° ENE 03:57:03 10° NNE visible
24 Aug 5.6 05:28:26 10° SSW 05:33:34 61° W 05:38:44 10° N visible
25 Aug 8.4 03:18:02 10° E 03:19:24 11° ENE 03:20:47 10° ENE visible
25 Aug 5.7 04:53:56 10° S 04:59:07 77° E 05:04:19 10° N visible
26 Aug 6.6 04:19:54 10° SSE 04:24:47 44° E 04:29:42 10° NNE visible
27 Aug 7.5 03:46:24 10° SE 03:50:35 25° E 03:54:47 10° NNE visible
27 Aug 5.9 05:25:59 10° SSW 05:30:58 46° W 05:35:59 10° N visible
28 Aug 8.1 03:13:43 10° ESE 03:16:31 15° ENE 03:19:19 10° NE visible
28 Aug 5.5 04:51:15 10° S 04:56:27 81° W 05:01:41 10° N visible
29 Aug 6.1 04:17:15 11° SSE 04:22:03 58° E 04:27:09 10° N visible
30 Aug 7.0 03:43:27 11° SE 03:47:47 33° E 03:52:24 10° NNE visible
30 Aug 6.2 05:23:53 11° SW 05:28:24 35° WNW 05:33:10 10° NNW visible
31 Aug 7.8 03:10:03 10° ESE 03:13:39 19° ENE 03:17:16 10° NNE visible
31 Aug 5.5 04:50:03 19° SSW 04:53:48 62° W 04:58:58 10° N visible
